Location: Grasslands National Park East Block
(49.0708°N, 106.5295°W)
Time: 22:32:30
(UTC-06:00)

Daily predictions for brighter satellites

Satellite Brightness Start Highest point End
(mag) Time Altitude Azimuth Time Altitude Azimuth Time Altitude Azimuth
Cosmos 1745 Rocket 4.3 18:56:10 10° SSE 19:02:11 48° E 19:08:10 10° NNE
Okean 1 4.2 19:02:34 10° N 19:06:11 30° ENE 19:09:46 10° SE
RESURS DK-1 3.4 19:06:27 10° SW 19:10:30 48° NW 19:14:33 10° NNE
NOSS 2-2 (C) 3.9 19:06:43 10° SSW 19:10:39 47° ESE 19:15:16 10° NE
Cosmos 2322 4.5 19:06:41 10° NNW 19:11:49 32° NE 19:16:55 10° ESE
FREGAT/IRIS 3.4 19:09:15 10° SE 19:12:01 31° ENE 19:14:49 10° N
Cosmos 1992 Rocket 4.2 19:07:42 10° NNW 19:12:58 81° WSW 19:18:12 10° SSE
Cosmos 1346 Rocket 3.4 19:12:15 10° NNW 19:16:11 63° W 19:20:03 10° S
Cosmos 1315 Rocket 4.2 19:12:36 10° SW 19:16:22 43° WNW 19:20:09 10° N
Cosmos 1833 Rocket 3.6 19:13:40 10° SW 19:19:08 50° NW 19:24:37 10° NNE
Cosmos 407 Rocket 4.2 19:15:35 10° SSE 19:20:10 32° E 19:24:50 10° NE
ALOS 2.8 19:18:45 10° SE 19:23:02 38° ENE 19:27:23 10° N
COSMOS 2428 3.9 19:18:50 10° NNW 19:23:28 25° NE 19:27:55 11° E
Cosmos 1975 Rocket 3.4 19:19:42 10° NNW 19:24:02 71° W 19:28:19 10° S
SKYMED 2 3.6 19:20:35 10° NNE 19:24:58 84° ESE 19:29:18 10° SSW
Meteor 1-25 Rocket 4.3 19:21:37 10° S 19:27:04 56° E 19:32:38 10° NNE
FENGYUN 3A 4.0 19:22:35 10° SE 19:27:42 45° ENE 19:32:51 10° N
Thor Agena Rocket 4.0 19:22:51 10° N 19:27:54 65° WNW 19:32:53 10° SSW
H-2A R/B 3.8 19:24:55 10° ESE 19:27:57 24° ENE 19:30:59 10° NNE
Cosmos 1812 2.6 19:27:40 10° N 19:31:34 81° E 19:35:25 10° SSE
Cosmos 1238 Rocket 3.3 19:29:46 10° NNE 19:32:24 23° ENE 19:34:51 10° SE
Cosmos 2237 Rocket 4.0 19:31:59 10° N 19:35:11 15° NNE 19:37:59 11° ENE
DMSP B5D1-3 4.5 19:32:34 10° NNE 19:37:44 78° ESE 19:42:52 10° S
Cosmos 1025 Rocket 4.5 19:36:24 10° NNE 19:39:29 18° ENE 19:40:58 16° E
Cosmos 1536 Rocket 3.6 19:38:24 10° N 19:42:51 61° ENE 19:47:16 10° SSE
Cosmos 1190 Rocket 4.0 19:39:36 10° S 19:44:40 57° ESE 19:49:46 10° NNE
Cosmos 1140 Rocket 4.4 19:44:05 10° SSE 19:48:08 24° E 19:52:13 10° NE
SAR-Lupe-4 4.4 19:45:47 14° ESE 19:48:20 29° ENE 19:51:29 10° N
Nadezhda 1 Rocket 4.3 19:45:28 10° NNW 19:51:33 69° W 19:57:33 10° S
Tiangong 2 3.3 19:50:17 10° WSW 19:52:30 18° SSW 19:54:42 10° SSE
Cosmos 2360 Rocket 2.2 19:48:25 10° NNW 19:54:03 64° ENE 19:59:41 10° SE
Spot 2 Rocket 3.5 19:50:33 10° SSE 19:55:31 60° ENE 20:00:32 10° N
Resurs 01 Rocket 1.6 19:51:20 10° SSE 19:55:40 59° ENE 20:00:02 10° N
Cosmos 2219 Rocket 3.3 19:52:49 10° NNW 19:57:23 25° NE 19:59:34 20° ENE
GEOS 3 Rocket 3.9 19:52:36 10° NE 19:57:35 47° SE 20:02:39 10° SSW
Cosmos 1602 4.2 19:56:30 10° SSE 20:00:07 38° E 20:03:45 10° NNE
Cosmos 2181 Rocket 3.9 19:56:43 10° N 20:02:56 70° E 20:09:13 10° SSE
SL-16 R/B 4.1 20:03:31 10° N 20:06:05 13° NNE 20:07:43 12° NE
HJ-1C 3.4 20:03:07 10° SSE 20:06:30 84° WSW 20:09:53 10° NNW
BREEZE-M DEB (TANK) 2.5 20:04:51 10° W 20:07:08 49° SSW 20:09:30 21° SE
ATLAS CENTAUR R/B 3.7 20:06:10 10° W 20:09:28 20° NNW 20:12:38 10° NNE
USA 229 DEB 4.1 20:03:52 10° NW 20:10:45 51° NE 20:15:00 24° ESE
USA 229 4.1 20:03:58 10° NW 20:10:50 50° NE 20:15:05 24° E
Envisat 3.8 20:10:22 26° E 20:11:50 31° ENE 20:16:15 10° N
SL-19 R/B 4.4 20:07:09 10° SSE 20:12:50 90° WNW 20:18:54 10° NNW
COSMO-SKYMED 1 4.3 20:08:56 10° N 20:12:52 34° WNW 20:16:46 10° SW
Cosmos 1954 Rocket 4.1 20:07:56 10° S 20:12:56 49° ESE 20:17:58 10° NNE
Cosmos 1633 2.6 20:10:24 10° S 20:14:01 57° E 20:17:39 10° NNE
SJ-6B 4.0 20:12:16 10° S 20:16:08 44° W 20:19:56 10° NNW
Cosmos 1833 4.4 20:12:31 10° S 20:17:58 48° ESE 20:23:23 10° NE
USA 186 2.9 20:19:50 28° NNE 20:19:50 28° NNE 20:21:34 10° N
Cosmos 2333 Rocket 3.2 20:14:13 10° NNW 20:19:11 29° NE 20:20:34 26° ENE
Cosmos 1300 Rocket 3.5 20:15:23 10° S 20:19:43 61° E 20:24:07 10° NNE
Resurs 1-3 3.5 20:16:19 10° SSE 20:20:41 87° ENE 20:25:07 10° NNW
ERS-1 Rocket 4.0 20:25:39 27° ENE 20:25:39 27° ENE 20:29:40 10° N
TSX-5 4.1 20:22:28 10° SSW 20:24:36 35° SSE 20:24:36 35° SSE
SL-16 R/B 3.8 20:21:19 10° NW 20:26:24 35° WSW 20:31:28 10° S
Cosmos 1939 Rocket 4.3 20:28:52 23° NNE 20:28:52 23° NNE 20:30:56 10° N
ATLAS 2AS CENTAUR R/B 4.3 20:20:44 10° NW 20:27:37 29° N 20:32:43 16° NE
Cosmos 2184 Rocket 4.2 20:21:56 10° SSE 20:27:51 44° E 20:33:45 10° NNE
Cosmos 2074 Rocket 4.2 20:22:19 10° SSE 20:28:13 46° E 20:34:11 10° NNE
Cosmos 1709 Rocket 4.0 20:23:11 10° S 20:29:26 84° W 20:35:38 10° N
Meteor 1-19 Rocket 4.3 20:24:05 10° NNW 20:29:46 84° W 20:35:30 10° S
USA 215 4.0 20:26:24 20° ENE 20:30:38 45° N 20:36:47 10° WNW
Cosmos 1340 3.5 20:27:43 10° NNW 20:31:26 51° W 20:35:06 10° S
Cosmos 1818 3.5 20:37:32 10° SW 20:42:59 84° SE 20:46:10 26° NE
NOSS 3-1 (C) 4.4 20:37:45 10° NW 20:44:34 45° NNE 20:47:16 34° ENE
Nadezhda 3 Rocket 4.3 20:38:53 10° N 20:44:41 41° ENE 20:45:09 40° E
Cosmos 2322 Rocket 4.4 20:40:21 10° NW 20:44:48 25° WSW 20:49:16 10° SSW
Meteor 1-5 Rocket 4.4 20:39:18 10° SSE 20:45:02 50° E 20:50:43 10° NNE
Genesis I 3.0 20:42:30 10° NW 20:46:29 85° NE 20:46:32 84° ENE
Cosmos 2285 Rocket 4.0 20:41:58 10° NNW 20:48:25 64° ENE 20:50:42 40° SE
Okean 1 Rocket 3.0 20:44:15 10° S 20:48:44 89° W 20:53:17 10° N
Helios 1A 3.2 20:48:26 26° S 20:50:41 70° WSW 20:54:51 10° NNW
CZ-2D R/B 3.9 20:48:12 18° S 20:50:53 54° W 20:54:39 10° NNW
Cosmos 405 Rocket 4.3 20:51:27 10° N 20:53:29 26° NNE 20:53:29 26° NNE
Cosmos 2322 4.4 20:50:44 10° NW 20:56:18 54° WSW 21:00:58 15° S
Meteor 1-23 Rocket 4.3 20:51:30 10° NNW 20:57:22 84° W 21:01:46 18° S
SJ-11-01 4.2 20:58:38 71° ENE 20:58:40 71° ENE 21:03:25 10° N
Okean 1-7 Rocket 4.0 20:55:11 10° NNW 20:59:42 63° W 21:02:21 24° S
Cosmos 1570 Rocket 4.1 20:54:45 10° NNW 20:59:58 72° WSW 21:02:11 35° S
Cosmos 1023 Rocket 4.3 20:55:09 10° SSW 21:00:16 88° WNW 21:05:02 12° NNE
ALOS 4.2 20:56:32 10° SSW 21:00:34 29° W 21:04:39 10° NNW
Meteor 2-4 Rocket 4.2 21:02:04 10° NNW 21:07:36 58° W 21:12:56 10° S
COSMOS 2428 2.7 21:02:41 10° NNW 21:08:23 78° WSW 21:10:00 49° S
Cosmos 2333 4.2 21:07:11 10° NNW 21:12:55 82° WSW 21:14:05 58° SSE
Cosmos 1025 Rocket 3.7 21:13:10 10° NNW 21:17:26 54° W 21:17:56 51° WSW
Cosmos 2237 Rocket 2.6 21:15:03 10° NNW 21:19:50 48° NNE 21:19:50 48° NNE
Cosmos 1140 Rocket 4.1 21:24:34 10° SW 21:29:35 53° WNW 21:33:59 14° NNE
Meteor 2-13 Rocket 4.4 21:32:31 67° NNE 21:32:31 67° NNE 21:37:47 10° N
Resurs 01 Rocket 4.4 21:29:38 10° SW 21:32:32 17° W 21:35:28 10° NW
Cosmos 468 Rocket 4.4 21:27:22 10° NNW 21:31:32 58° NNW 21:31:32 58° NNW
Cosmos 2360 Rocket 4.2 21:33:10 10° NW 21:37:37 24° WSW 21:42:02 10° SSW
Cosmos 2219 Rocket 2.4 21:36:21 10° NNW 21:41:20 67° WNW 21:41:20 67° WNW
NOSS 0 Rocket 4.0 21:41:08 10° NNW 21:46:48 74° WNW 21:46:48 74° WNW
Envisat 4.0 21:50:33 42° WSW 21:50:43 43° W 21:55:34 10° NNW
SL-16 R/B 3.5 21:46:24 10° NNW 21:49:37 30° N 21:49:37 30° N
H-2A R/B 4.1 21:58:07 20° N 21:58:07 20° N 21:59:54 10° N
USA 229 DEB 4.2 21:54:58 10° NW 22:01:51 53° WSW 22:02:29 51° SW
USA 229 4.2 21:55:05 10° NW 22:01:57 53° WSW 22:02:34 52° SW
Cosmos 2333 Rocket 3.0 21:58:13 10° NNW 22:02:36 50° WNW 22:02:36 50° WNW
ERS-1 Rocket 4.3 22:05:39 36° NW 22:05:39 36° NW 22:08:56 10° NNW
USA 215 3.8 22:13:45 51° N 22:13:45 51° N 22:19:21 10° WNW
NOSS 3-1 (A) 4.0 22:07:22 10° NW 22:13:54 71° NNW 22:13:54 71° NNW
ATLAS 2AS CENTAUR R/B 3.7 22:13:03 10° NW 22:20:09 43° NNE 22:20:09 43° NNE
NOSS 3-1 (C) 4.4 22:28:37 10° NW 22:34:41 59° WNW 22:34:41 59° WNW
Cosmos 2237 Rocket 4.4 22:59:33 10° NW 23:01:40 20° WNW 23:01:40 20° WNW
